Location: Goettingen
(51.5300°N, 9.9433°E)
Time: 10:26:11
(UTC+02:00)

ISS - Pass Details

Date: 25 May 2019
Orbit: 407 x 410 km, 51.6° (Epoch: 21 May)

Event Time Altitude Azimuth Distance (km) Brightness Sun altitude
Rises 01:48:23 0° 282° (WNW) 2,338 0.1 -17.3°
Reaches altitude 10° 01:50:46 10° 266° (W) 1,474 -1.1 -17.2°
Enters shadow 01:50:54 11° 265° (W) 1,430 -1.2 -17.2°
